Location: Aldenham
(51.6667°N, 0.3500°W)
Time: 18:10:36
(UTC+00:00)

Explorer 7 - Pass Details

Date: 19 February 2026
Orbit: 430 x 542 km, 50.2° (Epoch: 8 March)

Event Time Altitude Azimuth Distance (km) Brightness Sun altitude
Rises 19:17:25 0° 280° (W) 2,517 11.9 -18.3°
Reaches altitude 10° 19:19:38 10° 272° (W) 1,658 10.5 -18.6°
Maximum altitude 19:23:08 38° 204° (SSW) 773 7.7 -19.2°
Enters shadow 19:24:18 30° 164° (SSE) 922 7.7 -19.3°
Drops below altitude 10° 19:26:45 10° 135° (SE) 1,718 - -19.7°
Sets 19:29:05 0° 128° (SE) 2,622 - -20.1°
